Location: Lawrence
(38.9720°N, 95.2350°W)
Time: 18:34:56
(UTC-05:00)

JAS-1B - Visible Passes

Search period start: 01 September 2014 00:00
Search period end: 11 September 2014 00:00
Orbit: 911 x 1744 km, 99.1° (Epoch: 31 August)

Date Brightness Start Highest point End Pass type
(mag) Time Alt. Az. Time Alt. Az. Time Alt. Az.
01 Sep 9.4 02:17:08 10° ENE 02:19:35 13° E 02:19:35 13° E visible
01 Sep 6.9 04:04:57 10° N 04:11:36 76° WNW 04:11:49 75° W visible
01 Sep 9.0 05:59:02 10° NW 06:00:46 11° NW 06:02:27 10° WNW visible
02 Sep 9.0 02:34:48 10° NE 02:38:42 19° E 02:38:42 19° E visible
02 Sep 7.2 04:24:09 10° N 04:30:32 53° WNW 04:30:57 52° W visible
03 Sep 8.6 02:53:09 10° NE 02:57:50 28° E 02:57:50 28° E visible
03 Sep 7.6 04:43:28 10° N 04:49:22 37° WNW 04:50:04 36° W visible
04 Sep 8.0 03:11:48 10° NNE 03:16:58 39° ENE 03:16:58 39° ENE visible
04 Sep 8.0 05:02:56 10° N 05:08:09 27° WNW 05:09:12 25° WNW visible
05 Sep 7.5 03:30:38 10° NNE 03:36:05 55° ENE 03:36:05 55° ENE visible
05 Sep 8.4 05:22:38 10° NNW 05:26:51 19° WNW 05:28:20 17° WNW visible
06 Sep 7.1 03:49:37 10° NNE 03:55:13 70° NNE 03:55:13 70° NNE visible
06 Sep 8.8 05:42:49 10° NNW 05:45:29 13° NW 05:47:27 11° WNW visible
07 Sep 9.4 02:20:18 10° NE 02:22:06 13° ENE 02:22:06 13° ENE visible
07 Sep 7.1 04:08:44 10° N 04:14:20 62° NW 04:14:20 62° NW visible
08 Sep 9.0 02:38:13 10° NE 02:41:13 20° ENE 02:41:13 20° ENE visible
08 Sep 7.4 04:27:57 10° N 04:33:28 45° WNW 04:33:28 45° WNW visible
09 Sep 8.6 02:56:39 10° NNE 03:00:21 28° ENE 03:00:21 28° ENE visible
09 Sep 7.8 04:47:20 10° N 04:52:35 32° WNW 04:52:35 32° WNW visible
10 Sep 8.2 03:15:21 10° NNE 03:19:29 37° NE 03:19:29 37° NE visible
10 Sep 8.2 05:06:53 10° NNW 05:11:25 22° WNW 05:11:43 22° WNW visible
